Vorticity
52 26 36 37 14 17 9 23 31 8 26 31 2 2 8 10 10 6 -0 27 43 12 11 7 10 9 9 7 4 7 6 2 9 22 6 0 7 8 -2 -2 15 9 3 3 13 11 -4 0 6 3 11 12 14 17
47 28 35 42 15 9 21 26 2 26 32 8 14 8 13 4 7 10 -1 38 37 28 -8 28 6 8 2 6 5 6 15 5 4 15 8 9 2 4 -3 13 -9 -2 1 10 9 17 12 6 8 8 13 12 16 21
25 31 23 58 44 39 30 41 17 10 30 6 8 15 3 4 3 8 -3 34 37 27 6 6 19 6 9 5 10 10 16 7 2 5 5 7 22 6 -3 4 3 6 5 1 6 12 14 2 4 9 11 10 13 13
18 12 5 -1 19 16 12 17 16 13 12 8 19 9 4 5 5 13 0 30 29 25 16 17 25 51 24 11 2 12 9 11 9 -0 2 6 8 7 13 -1 -6 3 4 8 13 16 11 6 9 7 9 9 9 6
12 14 14 14 14 4 14 15 16 13 12 14 10 4 7 12 9 9 11 49 38 -4 30 -10 -30 13 86 7 3 9 13 12 9 6 -2 -1 6 9 12 13 4 5 8 1 7 14 8 8 6 10 11 8 6 2
8 11 12 13 15 14 16 15 11 9 6 9 14 16 14 11 9 9 33 63 9 -15 23 45 -5 -40 -21 24 41 4 4 8 10 10 8 4 -3 15 15 10 5 3 5 8 5 12 4 5 8 11 8 5 3 2
12 15 10 14 14 11 12 16 21 19 16 12 11 16 14 15 7 17 54 40 -8 24 -12 -23 29 42 31 24 -5 16 33 4 10 7 14 8 11 -2 9 15 1 4 2 13 -14 30 10 4 9 8 4 4 5 4
12 9 8 12 15 19 17 11 9 12 13 9 11 12 10 7 8 45 58 -30 14 31 39 -22 -46 4 16 12 17 -3 18 24 17 11 7 13 11 9 18 22 9 4 5 -1 10 14 11 5 4 -1 -0 -0 -1 1
13 12 9 6 6 10 12 14 19 21 21 20 7 6 5 6 26 54 42 28 19 -56 -0 27 52 24 -3 16 -2 8 -7 6 22 14 3 16 21 4 -6 9 11 2 -2 4 1 -0 18 33 7 -0 6 26 9 6
9 12 16 12 10 8 5 6 10 9 11 13 12 17 16 10 24 -21 8 -9 42 41 11 1 19 23 1 0 8 11 19 9 21 26 14 0 13 23 9 8 8 11 9 9 18 18 6 4 16 17 2 2 3 -1
9 9 13 13 15 14 10 6 7 20 13 11 8 11 14 10 50 24 32 54 44 -4 -7 0 13 6 36 12 -15 2 7 5 2 22 19 16 25 11 17 9 -0 12 7 -2 -3 21 -2 -2 52 -10 16 -1 12 8
10 29 -5 16 39 39 57 59 26 -1 6 17 28 36 55 3 11 19 -1 9 29 -9 10 1 -3 18 7 10 22 -5 -16 7 4 2 13 4 -1 13 9 9 5 16 10 5 -4 16 14 33 26 18 -1 -0 14 10
48 40 14 40 40 19 25 24 17 25 34 18 41 -8 -22 -24 -3 -5 11 13 23 12 29 18 8 18 17 8 -1 -7 24 24 29 9 12 12 16 5 11 19 2 18 30 25 -29 7 6 9 7 13 14 10 9 13
23 37 14 9 -0 5 9 -9 21 49 36 18 -13 -10 -7 28 10 -25 15 9 33 33 23 16 -51 38 -3 30 27 6 29 -27 34 20 49 -17 37 4 22 45 19 6 8 20 17 16 21 18 14 10 12 13 8 3
-10 -50 -8 28 -4 -12 -5 57 -22 35 -34 -10 -18 -4 34 20 21 11 7 8 13 -9 15 -10 -0 0 11 16 -1 -9 5 19 0 0 2 39 14 13 8 3 -0 3 10 10 12 13 12 10 11 8 9 14 12 11
16 -6 16 1 10 25 18 -50 10 -7 -22 17 23 19 29 21 12 3 7 8 13 25 34 35 8 26 26 25 2 28 29 23 15 -0 1 5 22 23 27 18 10 11 13 16 12 6 5 4 2 6 11 5 5 9
-8 -23 38 -8 12 -13 11 29 7 27 18 -9 -8 0 7 5 5 12 14 13 10 1 4 7 10 11 21 20 25 -7 24 -8 -5 27 36 43 25 1 -6 11 12 15 8 11 13 13 9 6 2 0 11 15 10 6
-6 5 6 4 -0 9 -7 8 17 -16 3 -2 -0 4 8 8 5 4 3 6 8 7 8 6 15 4 3 10 15 24 10 3 10 2 -3 3 5 8 11 11 14 12 3 -2 -5 -3 5 11 12 7 3 3 5 6
-16 -7 -1 -3 6 10 10 12 4 4 5 6 5 7 8 9 10 7 5 6 4 9 14 10 5 4 10 9 -3 -1 -4 2 -1 2 6 4 5 7 9 8 8 8 10 11 12 6 5 6 4 4 6 9 12 15
2 -2 -1 0 2 -6 -3 -0 0 2 12 16 13 7 7 7 7 8 10 12 16 15 10 6 11 13 11 8 7 8 9 9 4 7 6 6 3 2 3 4 4 6 6 8 9 9 9 11 13 13 12 11 9 8
12 12 12 6 9 9 4 4 10 5 3 3 5 6 4 2 5 6 5 3 3 3 7 5 7 6 8 6 6 6 7 6 5 5 5 5 5 6 8 10 10 10 11 9 9 9 9 8 9 10 10 9 8 9
8 8 7 8 8 8 5 9 7 9 11 8 8 7 8 7 5 3 6 7 8 8 6 5 4 4 5 5 6 7 8 9 10 9 9 8 9 10 11 11 12 11 11 10 9 7 5 5 7 11 14 12 8 9
5 7 13 13 15 12 17 10 9 9 9 11 12 13 11 11 12 12 11 8 8 8 12 17 21 23 22 22 19 17 14 13 12 11 11 11 9 9 8 7 7 7 7 8 10 12 13 13 15 15 15 14 13 12
17 14 13 14 7 18 16 14 18 14 12 12 10 10 11 10 11 9 8 11 13 14 10 8 6 5 4 2 5 7 9 9 9 12 13 14 14 15 16 17 18 19 19 19 18 18 17 15 13 11 8 6 4 2
2 4 6 7 6 7 8 8 6 10 6 4 6 6 4 7 9 14 11 9 7 4 5 2 5 8 11 12 12 13 13 14 13 13 13 12 14 15 15 15 14 15 14 12 10 8 5 4 2 3 4 7 12 15
6 -0 3 -1 -1 -4 3 6 5 8 6 5 6 9 6 10 6 -2 3 5 3 -1 0 8 15 23 26 25 24 24 21 21 21 20 19 19 19 17 15 12 10 8 5 4 3 3 6 11 16 20 21 22 22 20
2 3 2 1 0 1 4 4 4 6 6 6 10 5 6 5 5 5 4 3 11 21 27 29 27 23 19 17 16 15 13 11 10 9 8 7 5 4 3 2 2 5 9 13 19 22 23 22 21 20 26 37 36 24
6 5 2 4 4 2 3 5 13 7 14 11 9 4 3 6 5 8 17 26 29 26 17 11 11 12 13 13 12 12 11 10 9 9 9 11 13 16 19 23 26 25 24 22 19 16 22 38 38 13 5 6 7 10
4 5 4 4 3 1 11 14 14 12 6 4 3 8 9 13 17 28 22 18 14 12 11 11 11 13 15 16 17 16 16 16 16 16 16 16 16 17 18 19 18 15 16 29 41 29 3 1 11 15 19 18 16 16
8 6 4 4 7 15 16 10 6 6 5 5 7 13 21 27 19 16 11 13 16 16 18 22 24 24 23 22 20 20 20 21 22 21 20 17 16 14 15 27 38 32 20 8 4 11 19 20 18 16 15 15 14 14
3 4 8 16 18 11 5 6 6 7 10 13 16 24 20 12 7 13 21 21 24 27 26 22 19 19 17 16 16 16 15 14 13 13 16 26 38 33 21 13 9 10 17 21 16 13 12 12 13 13 13 14 17 17
18 18 13 6 5 7 5 9 11 13 15 20 21 17 5 13 23 24 25 26 23 18 14 10 9 10 10 10 12 16 19 23 34 37 23 15 10 11 16 17 13 10 10 10 9 8 8 8 9 11 13 16 17 18
9 4 6 7 10 12 12 15 11 11 18 18 5 9 19 24 25 25 18 14 12 12 13 14 16 17 17 18 24 37 35 20 12 10 14 16 11 8 10 9 10 11 10 8 5 6 8 12 17 19 21 21 16 16
Height
5243 5234 5228 5228 5235 5244 5255 5266 5278 5293 5307 5325 5344 5360 5375 5388 5399 5410 5419 5426 5436 5454 5470 5483 5495 5504 5523 5539 5555 5569 5578 5582 5590 5596 5602 5610 5618 5628 5636 5642 5649 5654 5658 5660 5662 5664 5668 5673 5672 5673 5672 5670 5670 5670
5253 5247 5242 5241 5246 5255 5263 5274 5286 5299 5315 5332 5347 5362 5375 5388 5398 5408 5418 5425 5434 5449 5468 5477 5492 5502 5517 5533 5548 5562 5575 5582 5586 5592 5595 5603 5611 5621 5629 5635 5643 5647 5652 5654 5657 5659 5662 5665 5665 5665 5664 5663 5662 5662
5271 5265 5260 5257 5259 5266 5274 5283 5295 5309 5324 5339 5352 5365 5377 5389 5398 5408 5414 5421 5429 5446 5462 5475 5485 5497 5510 5529 5543 5556 5564 5573 5578 5585 5593 5601 5608 5617 5621 5631 5636 5639 5644 5647 5649 5653 5655 5656 5658 5658 5657 5657 5657 5656
5282 5279 5278 5278 5281 5285 5291 5299 5310 5322 5333 5344 5356 5369 5380 5389 5396 5403 5410 5418 5428 5443 5458 5477 5492 5498 5507 5526 5539 5551 5560 5567 5573 5579 5585 5592 5601 5610 5616 5623 5627 5632 5637 5640 5642 5645 5647 5649 5650 5649 5650 5651 5651 5651
5291 5291 5291 5293 5296 5300 5306 5313 5321 5330 5340 5351 5362 5372 5381 5389 5395 5401 5406 5414 5426 5443 5457 5476 5486 5496 5506 5522 5535 5545 5554 5560 5566 5572 5577 5585 5593 5602 5607 5613 5617 5624 5629 5633 5635 5638 5638 5641 5641 5642 5644 5644 5645 5645
5300 5301 5301 5304 5307 5312 5317 5324 5332 5340 5349 5358 5367 5375 5382 5389 5396 5400 5405 5413 5425 5440 5462 5477 5486 5494 5507 5521 5530 5541 5549 5555 5560 5566 5573 5579 5589 5595 5598 5602 5611 5617 5621 5624 5626 5627 5629 5631 5633 5635 5636 5636 5637 5637
5308 5309 5311 5314 5317 5322 5327 5334 5340 5347 5354 5363 5371 5378 5386 5392 5397 5400 5407 5423 5432 5444 5462 5474 5484 5495 5507 5519 5528 5536 5543 5550 5554 5560 5567 5575 5582 5586 5589 5594 5603 5608 5613 5613 5617 5618 5620 5622 5624 5625 5626 5627 5628 5627
5314 5316 5319 5322 5326 5330 5335 5341 5347 5354 5360 5368 5376 5384 5390 5395 5398 5401 5409 5424 5434 5450 5460 5473 5481 5495 5506 5516 5525 5532 5538 5543 5549 5555 5563 5570 5576 5579 5581 5588 5595 5600 5603 5605 5607 5609 5611 5612 5613 5615 5615 5616 5616 5616
5319 5322 5325 5328 5333 5338 5343 5348 5354 5360 5368 5376 5382 5388 5394 5400 5405 5408 5420 5434 5440 5451 5463 5474 5483 5495 5505 5514 5523 5529 5534 5538 5543 5549 5558 5564 5568 5570 5576 5583 5588 5591 5594 5596 5598 5599 5600 5602 5603 5604 5604 5603 5603 5603
5325 5328 5332 5335 5339 5344 5349 5355 5361 5368 5376 5383 5390 5395 5401 5407 5413 5418 5427 5434 5439 5451 5467 5478 5484 5495 5505 5512 5521 5527 5531 5536 5540 5546 5552 5557 5561 5566 5570 5574 5578 5582 5584 5586 5587 5590 5590 5591 5591 5591 5591 5591 5591 5590
5333 5336 5337 5340 5342 5347 5352 5360 5370 5378 5384 5390 5396 5402 5408 5414 5420 5428 5432 5437 5445 5457 5468 5478 5488 5498 5504 5513 5520 5524 5529 5531 5535 5541 5546 5549 5553 5559 5562 5566 5569 5571 5574 5575 5578 5578 5578 5576 5578 5579 5580 5579 5578 5577
5341 5343 5346 5348 5350 5350 5351 5362 5377 5388 5395 5401 5404 5409 5416 5423 5429 5433 5439 5449 5456 5466 5472 5482 5491 5498 5504 5512 5517 5524 5526 5528 5530 5536 5540 5543 5547 5550 5554 5557 5559 5560 5561 5564 5565 5567 5567 5566 5567 5567 5567 5566 5564 5562
5347 5352 5356 5362 5361 5366 5369 5376 5387 5395 5402 5408 5412 5422 5427 5434 5438 5443 5448 5455 5462 5467 5476 5486 5495 5501 5507 5512 5517 5521 5524 5527 5528 5531 5533 5535 5539 5542 5544 5545 5548 5547 5551 5551 5555 5553 5555 5555 5554 5554 5553 5552 5551 5549
5365 5369 5374 5376 5379 5380 5384 5388 5397 5402 5408 5416 5423 5430 5436 5442 5448 5451 5454 5461 5466 5473 5481 5489 5496 5500 5507 5511 5514 5518 5521 5523 5524 5524 5527 5530 5532 5533 5533 5535 5537 5541 5541 5543 5543 5543 5543 5543 5543 5542 5541 5539 5537 5536
5383 5387 5390 5395 5396 5399 5403 5407 5411 5420 5421 5422 5430 5436 5440 5446 5453 5457 5462 5467 5473 5481 5487 5493 5496 5499 5504 5507 5508 5513 5517 5519 5519 5519 5520 5522 5524 5524 5525 5527 5529 5528 5528 5530 5531 5531 5531 5531 5531 5529 5529 5527 5525 5522
5401 5403 5407 5410 5411 5414 5418 5421 5425 5429 5432 5437 5442 5447 5450 5455 5460 5464 5469 5474 5480 5484 5488 5491 5493 5496 5499 5503 5506 5505 5509 5511 5513 5514 5515 5516 5517 5515 5516 5517 5518 5519 5520 5520 5520 5521 5520 5519 5518 5517 5515 5512 5509 5506
5416 5421 5424 5425 5428 5430 5433 5436 5439 5441 5446 5452 5454 5457 5459 5463 5467 5470 5474 5477 5481 5484 5487 5490 5492 5495 5497 5499 5502 5503 5504 5506 5507 5507 5508 5509 5510 5511 5511 5511 5511 5511 5511 5511 5510 5510 5508 5506 5504 5503 5500 5497 5494 5490
5429 5431 5433 5436 5439 5442 5445 5447 5451 5453 5455 5457 5460 5462 5465 5468 5470 5472 5474 5477 5480 5482 5485 5489 5491 5492 5493 5495 5495 5497 5499 5499 5501 5501 5502 5502 5503 5503 5502 5502 5502 5502 5501 5500 5498 5497 5495 5493 5490 5487 5484 5480 5476 5472
5437 5439 5441 5443 5446 5449 5452 5454 5456 5456 5458 5461 5463 5464 5467 5469 5472 5474 5476 5478 5480 5482 5484 5485 5487 5488 5489 5490 5491 5492 5493 5493 5494 5494 5494 5494 5494 5493 5492 5491 5490 5489 5487 5486 5484 5482 5479 5476 5473 5469 5465 5462 5457 5453
5444 5445 5447 5449 5451 5454 5455 5456 5458 5459 5460 5463 5464 5466 5468 5469 5470 5471 5473 5475 5476 5478 5479 5480 5482 5483 5484 5485 5485 5485 5485 5485 5485 5484 5484 5483 5482 5481 5480 5479 5477 5475 5473 5471 5468 5466 5463 5459 5455 5452 5447 5443 5438 5434
5445 5447 5450 5452 5453 5455 5456 5458 5460 5460 5462 5463 5465 5467 5469 5470 5471 5472 5473 5474 5475 5475 5476 5476 5477 5477 5477 5477 5477 5476 5476 5475 5475 5474 5473 5472 5470 5469 5467 5465 5463 5460 5458 5455 5452 5449 5445 5442 5438 5434 5430 5425 5420 5415
5446 5448 5450 5451 5453 5455 5456 5457 5458 5460 5462 5462 5463 5464 5465 5466 5467 5468 5470 5471 5471 5471 5471 5471 5471 5470 5469 5469 5468 5467 5466 5465 5464 5462 5460 5458 5457 5455 5452 5450 5447 5444 5441 5438 5435 5432 5428 5425 5420 5416 5411 5405 5400 5394
5447 5449 5450 5452 5454 5455 5456 5457 5458 5459 5460 5461 5462 5462 5462 5463 5464 5464 5464 5463 5463 5463 5463 5463 5462 5461 5460 5458 5456 5455 5453 5451 5449 5447 5445 5443 5441 5439 5437 5434 5432 5429 5426 5423 5419 5414 5410 5406 5401 5396 5391 5386 5380 5375
5445 5447 5449 5451 5451 5452 5454 5455 5456 5457 5458 5458 5459 5459 5459 5460 5460 5459 5458 5458 5457 5456 5455 5454 5452 5451 5449 5448 5446 5443 5442 5439 5437 5434 5432 5429 5427 5424 5421 5418 5415 5411 5408 5404 5400 5397 5393 5388 5383 5378 5373 5368 5362 5355
5448 5449 5452 5452 5452 5453 5453 5454 5454 5455 5455 5455 5455 5455 5454 5454 5453 5452 5451 5450 5448 5447 5445 5443 5441 5439 5437 5435 5433 5430 5427 5424 5421 5418 5416 5413 5410 5407 5404 5401 5398 5395 5392 5388 5384 5380 5376 5371 5366 5360 5355 5348 5341 5333
5448 5449 5450 5450 5450 5451 5451 5451 5451 5451 5451 5450 5449 5448 5447 5446 5444 5443 5441 5438 5436 5433 5430 5427 5425 5422 5419 5417 5415 5413 5410 5408 5406 5403 5401 5399 5396 5393 5390 5387 5384 5381 5377 5373 5369 5364 5359 5353 5347 5340 5334 5327 5320 5313
5446 5446 5446 5446 5446 5446 5446 5446 5445 5445 5443 5442 5441 5439 5438 5436 5433 5431 5427 5424 5421 5417 5414 5411 5408 5406 5404 5402 5400 5399 5397 5395 5393 5391 5388 5386 5383 5380 5377 5374 5370 5366 5361 5357 5352 5346 5340 5334 5328 5322 5315 5307 5301 5294
5442 5442 5442 5442 5442 5441 5440 5440 5438 5437 5435 5434 5432 5430 5428 5425 5422 5418 5414 5410 5406 5403 5401 5398 5396 5393 5391 5389 5387 5385 5383 5381 5379 5377 5374 5371 5368 5365 5361 5357 5353 5349 5344 5340 5335 5330 5324 5319 5313 5307 5301 5294 5286 5279
5438 5438 5438 5437 5437 5436 5434 5433 5431 5429 5428 5425 5423 5420 5416 5412 5408 5404 5400 5397 5394 5391 5388 5385 5382 5379 5377 5375 5372 5370 5368 5366 5364 5361 5359 5356 5353 5350 5346 5342 5338 5334 5329 5325 5320 5316 5312 5307 5302 5295 5288 5281 5273 5266
5433 5433 5433 5432 5431 5429 5428 5426 5424 5421 5419 5416 5412 5408 5404 5400 5396 5393 5389 5385 5382 5378 5375 5372 5369 5366 5364 5362 5359 5357 5355 5353 5351 5349 5346 5343 5340 5337 5334 5330 5326 5322 5319 5315 5311 5307 5302 5296 5290 5283 5276 5269 5261 5254
5428 5428 5427 5425 5424 5422 5420 5418 5415 5412 5409 5406 5402 5398 5394 5390 5386 5382 5377 5373 5369 5366 5363 5361 5358 5356 5354 5352 5350 5348 5346 5344 5341 5339 5336 5333 5330 5328 5325 5323 5319 5316 5312 5308 5303 5298 5292 5286 5280 5273 5266 5259 5251 5244
5422 5421 5420 5419 5417 5415 5412 5409 5406 5403 5399 5395 5392 5388 5384 5379 5374 5370 5366 5362 5359 5357 5355 5353 5350 5348 5346 5344 5342 5340 5337 5335 5333 5331 5329 5327 5325 5323 5320 5317 5314 5310 5306 5302 5297 5291 5285 5279 5272 5264 5257 5250 5243 5237
5415 5415 5413 5411 5409 5406 5404 5402 5398 5395 5391 5386 5382 5377 5372 5367 5363 5360 5357 5354 5351 5349 5346 5344 5341 5339 5337 5336 5334 5332 5330 5330 5329 5327 5326 5324 5322 5319 5316 5313 5309 5305 5301 5295 5290 5284 5277 5269 5262 5255 5248 5242 5236 5230